Spokane, WA

10:14 PM PST on February 20, 2017 (GMT -0800)
Spokane International

Weather History for KGEG - May, 2014

Change the Weather History Date:

Monday, May 12, 2014

  Actual Average Record
Temperature  
Mean Temperature 52 °F 54 °F  
Max Temperature 66 °F 66 °F 92 °F (1993)
Min Temperature 38 °F 43 °F 25 °F (1985)
Degree Days  
Heating Degree Days 13 11  
Month to date heating degree days 130 154  
Since 1 July heating degree days 6490 6290  
Cooling Degree Days 0 0  
Month to date cooling degree days 0 0  
Year to date cooling degree days 0 0  
Growing Degree Days 2 (Base 50)    
Moisture  
Dew Point 27 °F    
Average Humidity 47    
Maximum Humidity 76    
Minimum Humidity 18    
Precipitation  
Precipitation 0.00 in 0.05 in 0.49 in (1948)
Month to date precipitation 0.41 0.54  
Year to date precipitation 7.25 6.55  
Snow  
Snow 0.00 in 0.00 in 0.10 in (1970)
Month to date snowfall 0.0 0.1  
Since 1 July snowfall 37.6 44.9  
Snow Depth 0.00 in    
Sea Level Pressure  
Sea Level Pressure 30.41 in    
Wind  
Wind Speed 3 mph (NE)    
Max Wind Speed 14 mph    
Max Gust Speed 17 mph    
Visibility 10 miles    
Events      
T = Trace of Precipitation, MM = Missing Value Source: NWS Daily Summary

Daily Weather History Graph

Daily Weather History Graph

Search for Another Location

Airport or City:

Trip Planner

Search our weather history database for the weather conditions in past years. The results will help you decide how hot, cold, wet, or windy it might be!

Date:

Astronomy

May. 12, 2014 Rise Set
Actual Time 5:16 AM PDT 8:17 PM PDT
Civil Twilight 4:40 AM PDT 8:53 PM PDT
Nautical Twilight 3:53 AM PDT 9:40 PM PDT
Astronomical Twilight 2:57 AM PDT 10:37 PM PDT
Moon 6:11 PM PDT (5/12) 4:09 AM PDT (5/12)
Length of Visible Light 16h 13m
Length of Day
15h 00m
Waxing Gibbous, 95% of the Moon is Illuminated
May 12
Waxing Gibbous
May 14
Full
May 21
Last Quarter
May 28
New
Jun 5
First Quarter

Hourly Weather History & Observations

Time (PDT) Temp. Windchill Dew Point Humidity Pressure Visibility Wind Dir Wind Speed Gust Speed Precip Events Conditions
12:53 AM 45.0 °F - 28.0 °F 52% 30.38 in 10.0 mi Calm Calm - N/A   Clear
1:53 AM 44.1 °F - 28.0 °F 53% 30.38 in 10.0 mi Calm Calm - N/A   Clear
2:53 AM 43.0 °F - 28.9 °F 58% 30.40 in 10.0 mi Calm Calm - N/A   Clear
3:53 AM 39.9 °F - 28.9 °F 65% 30.43 in 10.0 mi Calm Calm - N/A   Partly Cloudy
4:53 AM 39.9 °F - 30.0 °F 68% 30.45 in 10.0 mi Calm Calm - N/A   Partly Cloudy
5:53 AM 39.0 °F 34.8 °F 32.0 °F 76% 30.45 in 10.0 mi East 5.8 mph - N/A   Partly Cloudy
6:53 AM 42.8 °F 40.1 °F 30.2 °F 61% 30.43 in 10.0 mi ENE 4.6 mph - N/A   Partly Cloudy
7:53 AM 46.0 °F 43.9 °F 30.9 °F 56% 30.45 in 10.0 mi East 4.6 mph - N/A   Partly Cloudy
8:53 AM 50.0 °F - 32.0 °F 50% 30.46 in 10.0 mi Calm Calm - N/A   Partly Cloudy
9:53 AM 54.0 °F - 30.9 °F 41% 30.47 in 10.0 mi NE 3.5 mph - N/A   Scattered Clouds
10:53 AM 57.9 °F - 27.0 °F 31% 30.45 in 10.0 mi NNE 8.1 mph - N/A   Partly Cloudy
11:53 AM 60.1 °F - 23.0 °F 24% 30.45 in 10.0 mi Calm Calm - N/A   Partly Cloudy
12:53 PM 63.0 °F - 26.1 °F 25% 30.44 in 10.0 mi NNE 8.1 mph - N/A   Partly Cloudy
1:53 PM 63.0 °F - 21.9 °F 21% 30.43 in 10.0 mi Calm Calm - N/A   Partly Cloudy
2:53 PM 64.9 °F - 21.0 °F 19% 30.41 in 10.0 mi NNE 9.2 mph - N/A   Partly Cloudy
3:53 PM 64.9 °F - 23.0 °F 20% 30.40 in 10.0 mi NNE 5.8 mph - N/A   Partly Cloudy
4:53 PM 64.0 °F - 24.1 °F 22% 30.39 in 10.0 mi Variable 3.5 mph - N/A   Partly Cloudy
5:53 PM 66.0 °F - 21.9 °F 19% 30.37 in 10.0 mi Variable 5.8 mph - N/A   Partly Cloudy
6:53 PM 64.0 °F - 21.0 °F 19% 30.37 in 10.0 mi North 3.5 mph - N/A   Partly Cloudy
7:53 PM 62.6 °F - 23.0 °F 22% 30.36 in 10.0 mi NW 4.6 mph - N/A   Partly Cloudy
8:53 PM 57.9 °F - 26.1 °F 30% 30.37 in 10.0 mi Calm Calm - N/A   Partly Cloudy
9:53 PM 55.9 °F - 27.0 °F 33% 30.37 in 10.0 mi Calm Calm - N/A   Partly Cloudy
10:53 PM 48.2 °F - 32.0 °F 54% 30.37 in 10.0 mi SW 4.6 mph - N/A   Clear
11:53 PM 48.0 °F - 32.0 °F 54% 30.38 in 10.0 mi Calm Calm - N/A   Clear